Tracking 19706 objects as of 17-Jun-2019
HD Live streaming from Space Station
objects crossing your sky now

MICROSAT-R DEB


MICROSAT-R DEB is no longer on orbit


NORAD ID: 44170
Int'l Code: 2019-006BH
Perigee: N/A
Apogee: N/A
Inclination: N/A
Period: N/A
Semi major axis: N/A
RCS: N/A
Launch date: January 24, 2019
Source: India (IND)
Launch site: SRIHARIKOTA (SRI)
Decay date: 2019-04-18

Note: This is SATELLITE DEBRIS
aabbcc
Your satellite tracking list
Your tracking list is empty




NASA's NSSDC Master Catalog

Two Line Element Set (TLE):
1 44170U 19006BH  19094.29776842  .01477004  51465-3  13916-1 0  9998
2 44170  94.7415   4.0349 0321201 354.4045   5.3637 15.22743226   167
Source of the keplerian elements: AFSPC